This demonstration page uses our WeatherBlox Daily Observations layout. Learn more.

Left ArrowRight Arrow

Hourly Observations for August 3, 2015

Temp ( °F °C ) Dew Point ( °F °C ) Humidity (%) Winds ( mph kmh ) Pressure ( in mb ) Visibility ( mi km ) Precip ( " mm )
12:53 am 00:53 Clear 73 22.8 61 16.1 66 66 N N/A 29.85 1011 10 16 N/A
1:53 am 01:53 Clear 68 20 62 16.7 81 81 N N/A 29.86 1011 10 16 N/A
2:53 am 02:53 Mostly Clear 65 18.3 62 16.7 90 90 N N/A 29.85 1011 10 16 N/A
3:53 am 03:53 Mostly Clear 66 18.9 64 17.8 93 93 N N/A 29.84 1010 10 16 N/A
4:53 am 04:53 Cloudy with Nearby Thunderstorms 70 21.1 59 15 68 68 NE 15 24 29.91 1013 10 16 N/A
5:07 am 05:07 Windy with Storms Likely 69 20.6 58 14.4 68 68 NE 24 39 29.91 1013 10 16 N/A
5:32 am 05:32 Cloudy with Strong Thunderstorms 64 17.8 62 16.7 93 93 NE 10 17 29.97 1015 2 3 0.24 6.10
5:35 am 05:35 Cloudy with Strong Thunderstorms 63 17.2 62 16.7 97 97 NE 12 19 29.97 1015 1 2 0.34 8.64
5:42 am 05:42 Cloudy with Strong Thunderstorms 63 17.2 62 16.7 97 97 E 7 11 29.97 1015 2 2 0.42 10.67
5:45 am 05:45 Cloudy with Strong Thunderstorms 63 17.2 62 16.7 97 97 E 7 11 29.97 1015 2 3 0.43 10.92
5:53 am 05:53 Cloudy with Strong Thunderstorms 63 17.2 62 16.7 97 97 ENE 8 13 29.95 1014 3 5 0.50 12.70
6:04 am 06:04 Cloudy with Strong Thunderstorms 64 17.8 62 16.7 93 93 E 7 11 30.00 1016 3 4 0.14 3.56
6:31 am 06:31 Cloudy with Thunderstorms 63 17.2 62 16.7 97 97 ESE 10 17 29.94 1014 3 5 0.30 7.62
6:53 am 06:53 Cloudy with Thunderstorms 64 17.8 62 16.7 93 93 SSE 9 15 29.89 1012 5 8 0.35 8.89
7:15 am 07:15 Partly Cloudy with Nearby Thunderstorms 64 17.8 62 16.7 93 93 SE 8 13 29.88 1012 10 16 0.02 0.51
7:37 am 07:37 Partly Cloudy 64 17.8 62 16.7 93 93 SSE 8 13 29.88 1012 10 16 0.02 0.51
7:53 am 07:53 Mostly Cloudy 64 17.8 62 16.7 93 93 VRB 5 7 29.88 1012 10 16 0.02 0.51
8:53 am 08:53 Mostly Cloudy 67 19.4 63 17.2 87 87 S 5 7 29.87 1012 10 16 N/A
9:53 am 09:53 Cloudy 68 20 64 17.8 87 87 SSW 5 7 29.88 1012 10 16 N/A
10:53 am 10:53 Mostly Sunny 73 22.8 65 18.3 76 76 VRB 6 9 29.88 1012 10 16 N/A
11:53 am 11:53 Sunny 79 26.1 66 18.9 65 65 SSW 9 15 29.88 1012 10 16 N/A
12:53 pm 12:53 Mostly Sunny 82 27.8 67 19.4 60 60 WSW 9 15 29.86 1011 10 16 N/A
1:53 pm 13:53 Mostly Sunny 83 28.3 68 20 61 61 VRB 7 11 29.86 1011 10 16 N/A
2:53 pm 14:53 Sunny 85 29.4 69 20.6 59 59 VRB 7 11 29.85 1011 10 16 N/A
3:53 pm 15:53 Sunny 85 29.4 70 21.1 61 61 VRB 7 11 29.85 1011 10 16 N/A
4:53 pm 16:53 Sunny 82 27.8 69 20.6 65 65 SSW 3 6 29.83 1010 10 16 N/A
5:41 pm 17:41 Partly Cloudy with Nearby Thunderstorms 78 25.6 72 22.2 82 82 N 5 7 29.83 1010 10 16 N/A
5:50 pm 17:50 Mostly Cloudy with Thunderstorms 77 25 66 19 69 69 N 12 19 29.88 1012 10 16 N/A
5:53 pm 17:53 Mostly Cloudy with Thunderstorms 74 23.3 64 17.8 71 71 NW 17 28 29.88 1012 10 16 N/A
6:01 pm 18:01 Mostly Cloudy with Strong Thunderstorms 69 20.6 66 18.9 90 90 W 13 20 29.94 1014 2 2 0.16 4.06
6:03 pm 18:03 Mostly Cloudy with Strong Thunderstorms 68 20 66 18.9 93 93 VRB 7 11 29.94 1014 1 1 0.33 8.38
6:20 pm 18:20 Cloudy with Strong Thunderstorms 67 19.4 64 17.8 91 91 N N/A 29.91 1013 2 3 0.73 18.54
6:26 pm 18:26 Cloudy with Thunderstorms 66 18.9 65 18.3 96 96 ESE 5 7 29.88 1012 2 3 0.74 18.80
6:31 pm 18:31 Mostly Cloudy with Nearby Thunderstorms 69 20.6 66 18.9 90 90 S 8 13 29.88 1012 5 8 0.74 18.80
6:46 pm 18:46 Cloudy with Thunderstorms 69 20.6 66 18.9 90 90 N N/A 29.88 1012 10 16 0.74 18.80
6:53 pm 18:53 Mostly Cloudy with Thunderstorms 70 21.1 66 18.9 87 87 NNW 6 9 29.88 1012 10 16 0.74 18.80
7:16 pm 19:16 Partly Cloudy with Nearby Thunderstorms 69 20.6 66 18.9 90 90 SSE 5 7 29.88 1012 10 16 N/A
7:28 pm 19:28 Mostly Sunny 69 20.6 66 18.9 90 90 N N/A 29.88 1012 10 16 N/A
7:43 pm 19:43 Mostly Cloudy with Thunderstorms 69 20.6 66 18.9 90 90 W 3 6 29.88 1012 10 16 N/A
7:50 pm 19:50 Mostly Cloudy with Strong Thunderstorms 70 21 66 19 88 88 VRB 3 6 29.88 1012 2 3 0.08 2.03
7:53 pm 19:53 Mostly Cloudy with Strong Thunderstorms 69 20.6 67 19.4 93 93 N N/A 29.88 1012 2 2 0.08 2.03
7:59 pm 19:59 Cloudy with Thunderstorms 69 20.6 67 19.4 93 93 NE 5 7 29.88 1012 3 5 0.01 0.25
8:06 pm 20:06 Cloudy with Light Rain 70 21.1 67 19.4 90 90 ENE 5 7 29.88 1012 9 14 0.01 0.25
8:28 pm 20:28 Mostly Cloudy with Nearby Thunderstorms 69 20.6 67 19.4 93 93 SE 3 6 29.88 1012 9 14 0.01 0.25
8:45 pm 20:45 Mostly Cloudy with Thunderstorms 69 20.6 68 20 96 96 N N/A 29.88 1012 9 14 0.01 0.25
8:53 pm 20:53 Mostly Cloudy with Thunderstorms 69 20.6 68 20 96 96 WSW 3 6 29.87 1011 5 8 0.01 0.25
9:13 pm 21:13 Mostly Cloudy with Nearby Thunderstorms 70 21.1 68 20 93 93 NNW 3 6 29.88 1012 8 13 0.01 0.25
9:22 pm 21:22 Partly Cloudy 69 20.6 68 20 96 96 N N/A 29.88 1012 7 11 0.01 0.25
9:53 pm 21:53 Mostly Clear with Mist and Fog 68 20 67 19.4 96 96 N N/A 29.88 1012 4 6 0.01 0.25
10:26 pm 22:26 Clear with Mist and Fog 67 19.4 66 18.9 97 97 N N/A 29.91 1013 2 2 N/A
10:36 pm 22:36 Clear with Mist and Fog 67 19.4 66 18.9 97 97 N N/A 29.91 1013 1 1 N/A
10:43 pm 22:43 Clear with Mist and Fog 67 19.4 66 18.9 97 97 N N/A 29.91 1013 2 3 N/A
10:49 pm 22:49 Clear with Mist and Fog 66 19 66 19 100 100 N N/A 29.91 1013 3 5 N/A
10:50 pm 22:50 Clear with Mist and Fog 66 18.9 66 18.9 100 100 N N/A 29.89 1012 3 5 N/A
11:11 pm 23:11 Mostly Clear with Mist and Fog 66 18.9 66 18.9 100 100 N N/A 29.91 1013 2 3 N/A
11:18 pm 23:18 Mostly Cloudy with Mist and Fog 67 19.4 66 18.9 97 97 N N/A 29.91 1013 1 2 N/A
11:26 pm 23:26 Mostly Cloudy with Mist and Fog 67 19.4 67 19.4 100 100 N N/A 29.91 1013 3 5 N/A
11:53 pm 23:53 Cloudy with Mist and Fog 68 20 67 19.4 96 96 N N/A 29.91 1013 5 8 N/A

Powered by AerisWeather